Location: 22
(39.7117°N, 89.5929°W)
Time: 09:53:23
(UTC-05:00)

Transit 2A - Pass Details

Date: 06 August 2024
Orbit: 590 x 961 km, 66.7° (Epoch: 13 September)

Event Time Altitude Azimuth Distance (km) Brightness Sun altitude
Rises 13:00:59 0° 337° (NNW) 3,638 9.3 66.7°
Reaches altitude 10° 13:03:51 10° 347° (NNW) 2,701 8.7 66.7°
Maximum altitude 13:09:31 33° 50° (NE) 1,559 7.9 66.7°
Drops below altitude 10° 13:15:03 10° 113° (ESE) 2,632 9.0 66.6°
Sets 13:17:47 0° 122° (ESE) 3,533 9.6 66.5°
